Regional Weather Roundup
Issued by NWS

Home | Current Version | Previous Version | Text Only | Print | Product List | Glossary Off
Versions: 1 2 3 4 5 6 7 8 9 10 11 12 13 14 15 16 17 18 19 20 21 22 23 24 25 26 27 28 29 30 31 32 33 34 35 36 37 38 39 40 41 42 43 44 45 46 47 48 49 50

000
ASUS43 KIND 060559
RWRIN

WEATHER ROUNDUP FOR INDIANA
NATIONAL WEATHER SERVICE INDIANAPOLIS IN
200 AM EDT MON JUL 06 2015

NOTE: "FAIR" INDICATES FEW OR NO CLOUDS BELOW 12,000 FEET WITH NO
SIGNIFICANT WEATHER AND/OR OBSTRUCTIONS TO VISIBILITY.

* - STATION DOES NOT REPORT WEATHER SUCH AS PRECIPITATION OR FOG.

+ - STATION NOT QUALITY CONTROLLED BY THE NATIONAL WEATHER SERVICE.
    USE DATA WITH CAUTION...ESPECIALLY DEWPOINT AND RELATIVE
    HUMIDITY OBSERVATIONS.

INZ001>003-010>013-019-020-060700-
NORTHWEST INDIANA

CITY           SKY/WX    TMP DP  RH WIND       PRES   REMARKS

$$

LMZ046-743>745-060700-
SOUTHERN LAKE MICHIGAN

STATION/POSITION TIME  TEMP    WIND        PRES    WAVE
                       AIR SEA DIR/SP/G            HT
                 (UTC) (F)     (DEG/KT/KT) (MB)    (FT)
BURNS HARBOR     0500   73     180/  4/  9 1016.9F
MICHIGAN CITY    0500   73     140/  8/ 10   N/A
5NW MICH CITY    0500   69 67  180/  6/  8   N/A     0

$$

INZ004-005-014>016-021>024-060700-
NORTH CENTRAL INDIANA

CITY           SKY/WX    TMP DP  RH WIND       PRES   REMARKS
GOSHEN         CLEAR     63  60  90 SE3       30.04F
6HR MIN TEMP:  61; 6HR MAX TEMP:  80;

SOUTH BEND     CLEAR     69  62  78 S7        30.04S
6HR MIN TEMP:  67; 6HR MAX TEMP:  80;


$$

INZ006>009-017-018-025>027-060700-
NORTHEAST INDIANA

CITY           SKY/WX    TMP DP  RH WIND       PRES   REMARKS
ANGOLA *+        N/A     66  61  82 CALM      30.07S
FORT WAYNE     PTCLDY    65  60  84 S5        30.06F
6HR MIN TEMP:  64; 6HR MAX TEMP:  78;


$$

INZ028-029-035-036-043>045-051>053-060700-
WEST CENTRAL INDIANA

CITY           SKY/WX    TMP DP  RH WIND       PRES   REMARKS
GREENCASTLE +  CLEAR     64  61  88 CALM      30.06F
LAFAYETTE      CLEAR     68  64  87 CALM      30.03F
6HR MIN TEMP:  67; 6HR MAX TEMP:  79;

TERRE HAUTE    PTCLDY    71  68  90 S5        30.04F
6HR MIN TEMP:  70; 6HR MAX TEMP:  79;


$$

INZ030>032-037>040-046>048-054>057-064-065-060700-
CENTRAL INDIANA

CITY           SKY/WX    TMP DP  RH WIND       PRES   REMARKS
GREENWOOD *+   CLEAR     66  61  82 CALM      30.07F
INDIANAPOLIS   CLEAR     69  63  81 S7        30.04F
6HR MIN TEMP:  68; 6HR MAX TEMP:  77;

-EAGLE CREEK   CLEAR     67  62  84 CALM      30.05F
6HR MIN TEMP:  67; 6HR MAX TEMP:  78;

KOKOMO *+      CLEAR     64  61  88 CALM      30.05F
6HR MIN TEMP:  64; 6HR MAX TEMP:  79;

MT COMFORT *+  CLEAR     63 N/A N/A CALM      30.07F
SHELBYVILLE    CLEAR     66  63  90 SE6       30.06F FOG
6HR MIN TEMP:  65; 6HR MAX TEMP:  77;


$$

INZ033-034-041-042-049-050-058-059-060700-
EAST CENTRAL INDIANA

CITY           SKY/WX    TMP DP  RH WIND       PRES   REMARKS
MUNCIE         CLEAR     66  61  84 S3        30.07F
6HR MIN TEMP:  65; 6HR MAX TEMP:  78;


$$

INZ060-061-067>069-081>083-085>088-060700-
SOUTHWEST INDIANA

CITY           SKY/WX    TMP DP  RH WIND       PRES   REMARKS
EVANSVILLE     CLEAR     72  68  87 CALM      30.04F FOG
6HR MIN TEMP:  72; 6HR MAX TEMP:  82;

HUNTINGBURG *+ CLEAR     70  64  83 SE5       30.04F
6HR MIN TEMP:  70; 6HR MAX TEMP:  79;


$$

INZ062-063-066-070>080-084-089>092-060700-
SOUTH CENTRAL AND SOUTHEAST INDIANA

CITY           SKY/WX    TMP DP  RH WIND       PRES   REMARKS
BLOOMINGTON    CLEAR     67  65  93 CALM      30.06F
6HR MIN TEMP:  66; 6HR MAX TEMP:  79;

MADISON *+     CLEAR     63  61  94 CALM      30.09F
SEYMOUR +      CLEAR     64  64 100 CALM      30.06F

$$




USA.gov is the U.S. government's official web portal to all federal, state and local government web resources and services.